154P/Brewington (2013)

Japanese version
Home page
Updated on April 12, 2009

---------------------------------------------------------------------

* Profile

* Orbital Elements

Perturbed ephemeris below is based on elements from MPC 46622. 

 Epoch = 2456640.50000 TT   T = 2456638.74162 TT
 Peri. =   49.03366         a =     4.8800237 AU
 Node  =  343.49582 J2000.0 e =     0.6705250
 Incl. =   17.83245         q =     1.6078458 AU

* Finding Charts

* Magnitudes Graph

        m1 = 11.6 + 5 log d + 10.7 log r  [    ,-105]  (             - 2013 Aug. 29)
        m1 =  0.0 + 5 log d + 50   log r  [-105, 105]  (2013 Aug. 29 - 2014 Mar. 27)
        m1 = 11.6 + 5 log d + 10.7 log r  [ 105,    ]  (2014 Mar. 27 -             )

---------------------------------------------------------------------

The orbital elements are calculated using the Minor Planet & Comet Ephemeris Service.
The charts are made with StellaNavigator Ver.8 (AstroArts).
The magnitudes graphs are made with Comet for Windows.

---------------------------------------------------------------------

Copyright(C) Seiichi Yoshida (comet@aerith.net). All rights reserved.